Other Surface Observations
Issued by NWS Charleston, SC

Home | Current Version | Previous Version | Text Only | Print | Product List | Glossary On
Versions: 1 2 3 4 5 6 7 8 9 10 11 12 13 14 15 16 17 18 19 20 21 22 23 24 25 26 27 28 29 30 31 32 33 34 35 36 37 38 39 40 41 42 43 44 45 46 47 48 49 50
000
SXUS52 KCHS 010026
OSOCHS

MARINE OBSERVATIONS
NATIONAL WEATHER SERVICE CHARLESTON SC
800 PM EDT MON AUG 31 2015

...DOWNTOWN CHARLESTON AND HARBOR...

CITY           SKY/WX    TMP DP  RH WIND       PRES   REMARKS
WATERFRONT PRK   N/A     86  76  72 CALM      30.01S HX  96

...LAKE MOULTRIE...

CITY           SKY/WX    TMP DP  RH WIND       PRES   REMARKS
PINOPOLIS        N/A     88  73  62 VRB2      29.97S HX  96

...LAKE AND SUPPLEMENTAL COASTAL OBSERVATIONS...

STATION/POSITION TIME  TEMP    WIND        PRES    WAVE   SWELL
                       AIR SEA DIR/SP/G            HT/PER HT/PER/DIR
                 (UTC) (F)     (DEG/KT/KT) (MB)    (FT/S) (FT/S/D)
FORT PULASKI     0000   80 83  140/  3/  3 1018.0R
SAPELO ISLAND    0000   81     110/  1     1017.0S
UPR LAKE MARION  NOT AVBL
WINYAH BAY       2345   80     320/  1     1016.0S
LAKE MURRAY      0000   82     230/  3/  4 1016.9R
ACE BASIN NERRS  NOT AVBL


...C-MAN AND BUOY OBSERVATIONS...

STATION/POSITION TIME  TEMP    WIND        PRES    WAVE   SWELL
                       AIR SEA DIR/SP/G            HT/PER HT/PER/DIR
                 (UTC) (F)     (DEG/KT/KT) (MB)    (FT/S) (FT/S/D)
BUOY 41004       2350   81 83  230/ 10/ 12 1016.7R   4/ 9   3/ 9
BUOY 41008       2350   81 85  130/  6/  8 1017.5F   3/ 8   3/110/ 8
FOLLY BEACH CMAN 0000   81     230/  5/  6 1017.4R
CAPERS NS BUOY   2308   82     240/ 10/ 14 1017.1R
FRIPP NS BUOY    2300   83     210/ 10/ 12 1017.0R
5E ST. MARYS GA  2321      86                N/A     3/ 8


STATION/POSITION TIME  TEMP    WIND        PRES    WAVE   SWELL
                       AIR SEA DIR/SP/G            HT/PER HT/PER/DIR
                 (UTC) (F)     (DEG/KT/KT) (MB)    (FT/S) (FT/S/D)
FRYING PAN BUOY  2350   82 81  220/ 16/ 17 1016.9S   5/ 5   2/130/ 8
BUOY 41025       2350   81 84  160/ 16/ 17 1017.8F   4/ 9   3/130/ 9
CAPE LOOKOUT NC  0000   78     150/ 15/ 17 1017.3S
BUOY 41002       2350   84 84  210/ 14/ 16 1018.6F   4/ 6   2/140/ 8
BUOY 41010       2320   85 86  160/  6/  6 1018.1R
ST AUGUSTINE FL  0000   82 85  120/ 10/ 11 1018.2R

$$



USA.gov is the U.S. government's official web portal to all federal, state and local government web resources and services.